www.pogodaiklimat.ru

Погода и климат >> Архив погоды >> Алжир >> Бордж Моктар


ПОГОДА в Бордж Моктар

  • Прогноз погоды в Бордж Моктар
  • Монитор погоды в Бордж Моктар

АРХИВ ПОГОДЫ в Бордж Моктар

Время (UTC), дата Ветер
(напр.,м/с)
 
Видим.   Явления Облачность Т
(С)
Тd
(С)
f
(%)
Тe
(С)
Тes
(С)
Комфортность P
(гПа)
Po
(гПа)
Тmin
(С)
Tmax
(С)
R
(мм)
R24
(мм)
S
(см)
18 17.06 С 5 10 км 3/0
[Ac lent Ci sp]
+44.2 +0.4 7 +41 +41 опасность
перегрева
1005.8 963.5 +46.3
06 18.06 С 2 10 км 4/0
[Ac trans Ci sp]
+30.2 +2.6 17 +28 +28 жарко 1007.3 963.0 +30.0
09 18.06 С 7 10 км 3/0
[Ac lent]
+40.2 +35 +38 очень
жарко
1008.0 965.1
12 18.06 С 5 10 км 3/0
[Ac trans Ci sp]
+44.1 +39 +48 очень
жарко
1007.8 965.4
15 18.06 С 4 10 км 3/0
[Ci sp]
+45.0 +40 +47 очень
жарко
1005.5 963.3
18 18.06 СЗ 6 10 км ясно +43.7 +39 +39 очень
жарко
1005.6 963.2 +46.7
06 19.06 С 2 10 км ясно +29.5 -6.7 9 +26 +26 жарко 1008.4 964.0 +28.5
09 19.06 С 5 10 км ясно +38.3 +33 +41 жарко 1007.9 964.7
12 19.06 С 7 10 км ясно +44.0 +39 +46 очень
жарко
1007.2 964.8
15 19.06 СЗ 7 10 км ясно +44.9 +40 +44 очень
жарко
1004.2 962.1
18 19.06 СЗ 7 10 км 1/0
[Ac lent]
+43.8 -4.6 5 +40 +40 очень
жарко
1005.4 963.1 +45.9
06 20.06 СЗ 2 1000 м ясно +28.9 -10.3 7 +25 +26 комфорт 1006.6 962.2 +28.1
09 20.06 СВ 2 10 км ясно +37.0 -6.8 6 +33 +45 жарко 1006.5 963.2
12 20.06 В 3 10 км ясно +44.0 -3.8 5 +40 +60 опасность
солнечного
удара
1005.8 963.5
15 20.06 СЗ 2 10 км ясно +45.7 +41 +53 опасность
перегрева
1005.0 962.9
18 20.06 З 4 10 км ясно +44.3 -4.3 5 +40 +40 очень
жарко
1004.5 962.3 +46.6
06 21.06 З 4 10 км ясно +29.3 -8.3 8 +26 +26 жарко 1007.6 963.2 +28.7
09 21.06 СВ 3 10 км ясно +38.3 +33 +44 жарко 1008.3 965.1
12 21.06 СЗ 3 10 км ясно +42.8 -1.8 6 +39 +57 опасность
солнечного
удара
1006.9 964.4
15 21.06 С 3 10 км ясно +45.2 +40 +50 очень
жарко
1005.1 963.0
18 21.06 СЗ 4 10 км ясно +44.0 +39 +39 очень
жарко
1005.0 962.7 +46.0
06 22.06 ЮВ 3 10 км 4/4 1500 м
[]
+28.8 -8.7 8 +25 +25 комфорт 1009.0 964.4 +28.3
09 22.06 С 3 10 км 1/0
[Ci sp]
+37.5 -7.4 5 +33 +44 жарко 1008.6 965.3
12 22.06 С 4 10 км ясно +41.7 -3.6 6 +38 +54 опасность
солнечного
удара
1008.0 965.3
15 22.06 С 5 10 км ясно +44.8 -3.6 5 +41 +48 опасность
перегрева
1005.0 962.8
18 22.06 С 5 10 км ясно +43.8 +39 +39 очень
жарко
1010.5 967.9 +45.3
06 23.06 В 5 10 км ясно +29.0 -5.4 10 +26 +26 жарко 1006.7 962.3 +28.3
09 23.06 С 7 10 км ясно +37.3 +32 +35 жарко 1007.3 964.0
12 23.06 С 12 4000 м пыльный позёмок ясно +44.0 +39 +39 очень
жарко
1009.4 966.9
15 23.06 ЮВ 7 6000 м ясно +45.3 -1.2 6 +41 +45 опасность
перегрева
1006.2 964.0
18 23.06 С 8 10 км 4/0
[Ac lent Ci sp]
+44.3 +39 +39 очень
жарко
1003.4 961.2 +47.1
06 24.06 С 5 10 км ясно +32.0 +27 +27 жарко 1011.1 966.9 +31.4
09 24.06 В 9 7000 м пыльный позёмок ясно +39.5 +34 +35 очень
жарко
1006.0 963.1
12 24.06 СВ 4 10 км ясно +43.5 +38 +55 опасность
солнечного
удара
1005.3 962.9

 

Местоположение метеостанции Бордж Моктар (Алжир): широта 21.33 долгота 0.95 высота над уровнем моря 399 м.

В архиве по умолчанию представлена погода в Бордж Моктар за последнюю неделю. Архивные данные за месяц целиком и за предыдущие месяцы, начиная с января 2011 года, Вы можете получить, выбрав интересующий диапазон дат из раскрывающегося списка и нажав кнопку "Ввод!".


*Определитесь, кто Вы:
робот инопланетянин человек

Внимание! Время в таблицах - всемирное. Для получения местного времени необходимо прибавить поправку, которая равна 1 ч.

Смотрите также архив погоды в соседних городах и на ближайших метеорологических станциях:

Погода в Ин-Зиза (Алжир) (288 км)
Погода в Abankor (Алжир) (414 км)
Погода в Анебарака (Алжир) (440 км)
Погода в Таманрассете (Алжир) (490 км)
Погода в Араке (Алжир) (523 км)
Погода в Assekrem (Алжир) (528 км)
Погода в Moulay Lachen (Алжир) (537 км)
Погода в Ин-Геззаме (Алжир) (537 км)
Погода в Ин-Геззам аэропорту (Алжир) (537 км)
Погода в Mertouek (Алжир) (572 км)

Пояснения к столбцам:

Ветер - указаны скорость ветра в м/с - средняя за 10 мин, порывы в срок и между сроками (в фигурных скобках) и направление, откуда дует ветер: С - северный, СВ - северо-восточный, В - восточный, ЮВ - юго-восточный, Ю - южный, ЮЗ - юго-западный, З - западный, СЗ - северо-западный.
Видимость - горизонтальная дальность видимости в метрах или километрах. При видимости от 1 до 10 км при отсутствии осадков обычно наблюдается дымка, при ухудшении видимости до 1 км и менее - туман. В сухую погоду видимость может ухудшаться дымом, пылью или мглою.
Явления - указаны атмосферные явления, наблюдавшиеся в срок или в последний час перед сроком; фигурными скобками обозначены явления, наблюдавшиеся между сроками (за 1-3 часа до срока); квадратными скобками обозначены град или гололедные отложения с указанием их диаметра в мм.
Облачность - указаны через наклонную черту общая и нижняя облачность в баллах и высота нижней границы облаков в метрах; квадратными скобками обозначены формы облаков: Ci - перистые, Cs - перисто-слоистые, Cc - перисто-кучевые, Ac - высококучевые, As - высокослоистые, Sc - слоисто-кучевые, Ns - слоисто-дождевые, Cu - кучевые, Cb - кучево-дождевые. Подробнее классификацию облаков см. в Атласе облаков (PDF).
T - Температура воздуха - температура, измеренная на высоте 2 м над землей.
Td - Температура точки росы - температура, при понижении до которой содержащийся в воздухе водяной пар достигнет насыщения.
f - Относительная влажность воздуха - влажноcть воздуха, измеренная на высоте 2 м над землей.
Te - Эффективная температура - температура, которую ощущает одетый по сезону человек в тени. Характеристика душности погоды. При расчете учитывается влияние влажности воздуха и скорости ветра на теплоощущения человека.
Tes - Эффективная температура на солнце - температура, которую ощущает человек, с поправкой на солнечный нагрев. Характеристика знойности погоды. Зависит от высоты солнца над горизонтом, облачности и скорости ветра. Ночью, в пасмурную погоду, а также при ветре 12 м/с и более поправка равна нулю.
P - Атмосферное давление - приведенное к уровню моря атмосферное давление.
Po - Атмосферное давление - измеренное на уровне метеостанции атмосферное давление.
Tmin - Минимальная температура - минимум температуры воздуха на высоте 2 м над землей.
Tmax - Максимальная температура - максимум температуры воздуха на высоте 2 м над землей.
R - Количество осадков - Количество выпавших осадков за период времени, мм. При наведении курсора мыши на число - период времени, за который выпало указанное количество осадков.
R24 - Количество осадков - Количество выпавших осадков за 24 часа, мм.
S - Снежный покров - Высота снежного покрова, см. При наведении курсора мыши на число - состояние снежного покрова и степень покрытия местности в баллах.